timestamp,surface_pressure_avg,surface_temp_avg,battery_voltage,lat,long
2020-12-13 00:09:01+00:00,299.3297,6.5,12.65,47.84626,-54.09684
2020-12-13 00:19:01+00:00,294.4614,6.5,12.65,47.84626,-54.09684
2020-12-13 00:29:01+00:00,285.4498,6.5,12.65,47.84626,-54.09684
2020-12-13 00:39:01+00:00,271.183,6.5,12.65,47.84626,-54.09684
2020-12-13 00:49:01+00:00,263.7331,6.5,12.65,47.84626,-54.09684
2020-12-13 00:59:01+00:00,259.6281,6.5,12.65,47.84626,-54.09684
2020-12-13 01:09:01+00:00,249.4081,6.5,12.65,47.84626,-54.09684
2020-12-13 01:19:01+00:00,236.8464,6.5,12.65,47.84626,-54.09684
2020-12-13 01:29:01+00:00,229.0714,6.5,12.65,47.84626,-54.09684
2020-12-13 01:39:01+00:00,223.4231,6.5,12.65,47.84626,-54.09684
2020-12-13 01:49:01+00:00,209.8981,6.5,12.65,47.84626,-54.09684
2020-12-13 01:59:01+00:00,199.2081,6.5,12.65,47.84626,-54.09684
2020-12-13 02:09:01+00:00,196.1198,6.5,12.65,47.84626,-54.09684
2020-12-13 02:19:01+00:00,192.5531,6.5,12.65,47.84626,-54.09684
2020-12-13 02:29:01+00:00,186.3332,6.5,12.65,47.84626,-54.09684
2020-12-13 02:39:01+00:00,185.0282,6.5,12.65,47.84626,-54.09684
2020-12-13 02:49:01+00:00,186.8764,6.5,12.65,47.84626,-54.09684
2020-12-13 02:59:01+00:00,181.4865,6.5,12.65,47.84626,-54.09684
2020-12-13 03:09:01+00:00,174.4382,6.44,12.65,47.84626,-54.09684
2020-12-13 03:19:01+00:00,175.5615,6.4,12.65,47.84626,-54.09684
2020-12-13 03:29:01+00:00,176.5065,6.4,12.65,47.84626,-54.09684
2020-12-13 03:39:01+00:00,176.6281,6.4,12.65,47.84626,-54.09684
2020-12-13 03:49:01+00:00,178.8932,6.37,12.65,47.84626,-54.09684
2020-12-13 03:59:01+00:00,180.3114,6.3,12.65,47.84626,-54.09684
2020-12-13 04:09:01+00:00,182.8298,6.2,12.65,47.84626,-54.09684
2020-12-13 04:19:01+00:00,187.5081,6.2,12.65,47.84626,-54.09684
2020-12-13 04:29:01+00:00,189.0964,6.19,12.65,47.84626,-54.09684
2020-12-13 04:39:01+00:00,191.0431,6.2,12.65,47.84626,-54.09684
2020-12-13 04:49:01+00:00,195.7931,6.2,12.65,47.84626,-54.09684
2020-12-13 04:59:01+00:00,199.5915,6.21,12.65,47.84626,-54.09684
2020-12-13 05:09:01+00:00,202.1331,6.26,12.65,47.84626,-54.09684
2020-12-13 05:19:01+00:00,205.7531,6.28,12.57,47.84626,-54.09684
2020-12-13 05:29:01+00:00,209.9714,6.2,12.57,47.84626,-54.09684
2020-12-13 05:39:01+00:00,212.7698,6.1,12.57,47.84626,-54.09684
2020-12-13 05:49:01+00:00,218.8597,5.98,12.57,47.84626,-54.09684
2020-12-13 05:59:01+00:00,226.9848,5.8,12.57,47.84626,-54.09684
2020-12-13 06:09:01+00:00,232.0464,5.7,12.57,47.84626,-54.09684
2020-12-13 06:19:01+00:00,236.7914,5.69,12.57,47.84626,-54.09684
2020-12-13 06:29:01+00:00,239.7264,5.7,12.57,47.84626,-54.09684
2020-12-13 06:39:01+00:00,244.5848,5.8,12.57,47.84626,-54.09684
2020-12-13 06:49:01+00:00,252.0864,5.9,12.57,47.84626,-54.09684
2020-12-13 06:59:01+00:00,259.0798,6.0,12.57,47.84626,-54.09684
2020-12-13 07:09:01+00:00,262.58299999999997,6.0,12.57,47.84626,-54.09684
2020-12-13 07:19:01+00:00,271.1747,6.02,12.57,47.84626,-54.09684
2020-12-13 07:29:01+00:00,277.9347,6.06,12.57,47.84626,-54.09684
2020-12-13 07:39:01+00:00,286.053,6.08,12.57,47.84626,-54.09684
2020-12-13 07:49:01+00:00,294.833,6.1,12.57,47.84626,-54.09684
2020-12-13 07:59:01+00:00,306.5229,6.1,12.57,47.84626,-54.09684
2020-12-13 08:09:01+00:00,309.7263,6.1,12.57,47.84626,-54.09684
2020-12-13 08:19:01+00:00,320.553,6.1,12.57,47.84626,-54.09684
2020-12-13 08:29:01+00:00,332.8397,6.21,12.57,47.84626,-54.09684
2020-12-13 08:39:01+00:00,339.43300000000005,6.3,12.57,47.84626,-54.09684
2020-12-13 08:49:01+00:00,341.5513,6.3,12.57,47.84626,-54.09684
2020-12-13 08:59:01+00:00,349.9946,6.32,12.57,47.84626,-54.09684
2020-12-13 09:09:01+00:00,362.4063,6.3,12.57,47.84626,-54.09684
2020-12-13 09:19:01+00:00,366.6379,6.3,12.57,47.84626,-54.09684
2020-12-13 09:29:01+00:00,364.9713,6.3,12.57,47.84626,-54.09684
2020-12-13 09:39:01+00:00,369.4263,6.3,12.57,47.84626,-54.09684
2020-12-13 09:49:01+00:00,374.9045,6.3,12.57,47.84626,-54.09684
2020-12-13 09:59:01+00:00,375.7445,6.22,12.57,47.84626,-54.09684
2020-12-13 10:09:01+00:00,374.0779,6.3,12.57,47.84626,-54.09684
2020-12-13 10:19:01+00:00,379.8945,6.31,12.57,47.84626,-54.09684
2020-12-13 10:29:01+00:00,380.8846,6.33,12.57,47.84626,-54.09684
2020-12-13 10:39:01+00:00,377.3463,6.3,12.57,47.84626,-54.09684
2020-12-13 10:49:01+00:00,382.2645,6.35,12.57,47.84626,-54.09684
2020-12-13 10:59:01+00:00,382.7062,6.4,12.57,47.84626,-54.09684
2020-12-13 11:09:01+00:00,380.6829,6.4,12.57,47.84626,-54.09684
2020-12-13 11:19:01+00:00,376.5563,6.4,12.57,47.84626,-54.09684
2020-12-13 11:29:01+00:00,372.6613,6.46,12.57,47.84626,-54.09684
2020-12-13 11:39:01+00:00,370.6063,6.49,12.57,47.84626,-54.09684
2020-12-13 11:49:01+00:00,364.3712,6.48,12.57,47.84626,-54.09684
2020-12-13 11:59:01+00:00,360.1013,6.48,12.57,47.84626,-54.09684
2020-12-13 12:09:01+00:00,351.278,6.47,12.57,47.84626,-54.09684
2020-12-13 12:19:01+00:00,342.1113,6.46,12.57,47.84626,-54.09684
2020-12-13 12:29:01+00:00,337.038,6.47,12.57,47.84626,-54.09684
2020-12-13 12:39:01+00:00,331.4362,6.4,12.57,47.84626,-54.09684
2020-12-13 12:49:01+00:00,321.4613,6.4,12.57,47.84626,-54.09684
2020-12-13 12:59:01+00:00,306.5963,6.3,12.57,47.84626,-54.09684
2020-12-13 13:09:01+00:00,300.3547,6.3,12.57,47.84626,-54.09684
2020-12-13 13:19:01+00:00,292.0147,6.3,12.65,47.84626,-54.09684
2020-12-13 13:29:01+00:00,275.3314,6.19,12.65,47.84626,-54.09684
2020-12-13 13:39:01+00:00,261.8531,5.71,12.65,47.84626,-54.09684
2020-12-13 13:49:01+00:00,254.0098,5.49,12.65,47.84626,-54.09684
2020-12-13 13:59:01+00:00,245.2115,5.49,12.65,47.84626,-54.09684
2020-12-13 14:09:01+00:00,232.5147,5.38,12.65,47.84626,-54.09684
2020-12-13 14:19:01+00:00,223.9898,5.3,12.65,47.84626,-54.09684
2020-12-13 14:29:01+00:00,218.1381,5.1,12.65,47.84626,-54.09684
2020-12-13 14:39:01+00:00,212.5331,4.9,12.65,47.84626,-54.09684
2020-12-13 14:49:01+00:00,207.4747,4.8,12.65,47.84626,-54.09684
2020-12-13 14:59:01+00:00,204.3265,4.85,12.65,47.84626,-54.09684
2020-12-13 15:09:01+00:00,202.5115,4.94,12.65,47.84626,-54.09684
2020-12-13 15:19:01+00:00,199.3831,5.42,12.65,47.84626,-54.09684
2020-12-13 15:29:01+00:00,193.5948,5.6,12.65,47.84626,-54.09684
2020-12-13 15:39:01+00:00,187.4998,5.69,12.65,47.84626,-54.09684
2020-12-13 15:49:01+00:00,184.0615,5.89,12.65,47.84626,-54.09684
2020-12-13 15:59:01+00:00,184.6082,5.96,12.65,47.84626,-54.09684
2020-12-13 16:09:01+00:00,184.4798,5.7,12.65,47.84626,-54.09684
2020-12-13 16:19:01+00:00,178.7031,5.64,12.57,47.84626,-54.09684
2020-12-13 16:29:01+00:00,171.6481,5.6,12.57,47.84626,-54.09684
2020-12-13 16:39:01+00:00,170.3615,5.6,12.57,47.84626,-54.09684
2020-12-13 16:49:01+00:00,170.3048,5.57,12.57,47.84626,-54.09684
2020-12-13 16:59:01+00:00,167.8815,5.5,12.57,47.84626,-54.09684
2020-12-13 17:09:01+00:00,171.1615,5.43,12.57,47.84626,-54.09684
2020-12-13 17:19:01+00:00,180.2881,5.49,12.57,47.84626,-54.09684
2020-12-13 17:29:01+00:00,186.5965,5.5,12.57,47.84626,-54.09684
2020-12-13 17:39:01+00:00,191.0064,5.49,12.57,47.84626,-54.09684
2020-12-13 17:49:01+00:00,196.5814,5.4,12.57,47.84626,-54.09684
2020-12-13 17:59:01+00:00,197.3665,5.52,12.57,47.84626,-54.09684
2020-12-13 18:09:01+00:00,196.4799,5.5,12.57,47.84626,-54.09684
2020-12-13 18:19:01+00:00,198.0598,5.5,12.57,47.84626,-54.09684
2020-12-13 18:29:01+00:00,206.2431,5.4,12.57,47.84626,-54.09684
2020-12-13 18:39:01+00:00,211.3181,5.5,12.57,47.84626,-54.09684
2020-12-13 18:49:01+00:00,206.6198,5.3,12.57,47.84626,-54.09684
2020-12-13 18:59:01+00:00,205.4297,5.32,12.57,47.84626,-54.09684
2020-12-13 19:09:01+00:00,215.1164,5.64,12.57,47.84626,-54.09684
2020-12-13 19:19:01+00:00,226.5631,5.81,12.57,47.84626,-54.09684
2020-12-13 19:29:01+00:00,234.4631,6.0,12.57,47.84626,-54.09684
2020-12-13 19:39:01+00:00,244.8898,5.96,12.57,47.84626,-54.09684
2020-12-13 19:49:01+00:00,253.2614,5.9,12.57,47.84626,-54.09684
2020-12-13 19:59:01+00:00,259.2514,5.99,12.57,47.84626,-54.09684
2020-12-13 20:09:01+00:00,261.0897,5.99,12.57,47.84626,-54.09684
2020-12-13 20:19:01+00:00,270.9681,5.71,12.57,47.84626,-54.09684
2020-12-13 20:29:01+00:00,280.2564,5.49,12.57,47.84626,-54.09684
2020-12-13 20:39:01+00:00,283.533,5.3,12.57,47.84626,-54.09684
2020-12-13 20:49:01+00:00,289.1713,5.02,12.57,47.84626,-54.09684
2020-12-13 20:59:01+00:00,307.053,5.05,12.57,47.84626,-54.09684
2020-12-13 21:09:01+00:00,319.943,5.37,12.57,47.84626,-54.09684
2020-12-13 21:19:01+00:00,324.973,5.3,12.57,47.84626,-54.09684
2020-12-13 21:29:01+00:00,334.3163,5.3,12.57,47.84626,-54.09684
2020-12-13 21:39:01+00:00,348.8796,5.59,12.57,47.84626,-54.09684
2020-12-13 21:49:01+00:00,358.1529,5.7,12.57,47.84626,-54.09684
2020-12-13 21:59:01+00:00,360.11800000000005,5.6,12.57,47.84626,-54.09684
2020-12-13 22:09:01+00:00,362.8296,5.6,12.57,47.84626,-54.09684
2020-12-13 22:19:01+00:00,360.5947,5.6,12.57,47.84626,-54.09684
2020-12-13 22:29:01+00:00,361.9329,5.57,12.57,47.84626,-54.09684
2020-12-13 22:39:01+00:00,364.9896,5.62,12.57,47.84626,-54.09684
2020-12-13 22:49:01+00:00,367.7229,5.6,12.57,47.84626,-54.09684
2020-12-13 22:59:01+00:00,363.088,5.5,12.57,47.84626,-54.09684
2020-12-13 23:09:01+00:00,361.3895,5.5,12.57,47.84626,-54.09684
2020-12-13 23:19:01+00:00,358.8663,5.4,12.57,47.84626,-54.09684
2020-12-13 23:29:01+00:00,351.5215,5.3,12.57,47.84626,-54.09684
2020-12-13 23:39:01+00:00,351.9913,5.41,12.57,47.84626,-54.09684
2020-12-13 23:49:01+00:00,357.2047,5.5,12.57,47.84626,-54.09684
2020-12-13 23:59:01+00:00,352.8179,5.3,12.57,47.84626,-54.09684
